Location: Calberlah
(52.4230°N, 10.6240°E)
Time: 23:43:58
(UTC+00:00)

Okean-O - Pass Details

Date: 19 May 2025
Orbit: 628 x 631 km, 98.0° (Epoch: 22 June)

Event Time Altitude Azimuth Distance (km) Brightness Sun altitude
Exits shadow 20:03:46 - 173° (S) 2,708 5.4 -6.7°
Reaches altitude 10° 20:05:28 10° 176° (S) 2,010 4.7 -6.9°
Maximum altitude 20:09:49 64° 258° (WSW) 705 3.0 -7.3°
Drops below altitude 10° 20:14:12 10° 340° (NNW) 2,026 6.5 -7.8°
Sets 20:16:26 0° 344° (NNW) 2,938 7.4 -8.0°
